Location: Ernsee
(50.8780°N, 12.0389°E)
Time: 18:45:25
(UTC+00:00)

STARLINK-78 - Pass Details

Date: 20 January 2020
Orbit: 528 x 531 km, 53.0° (Epoch: 16 February)

Event Time Altitude Azimuth Distance (km) Brightness Sun altitude
Rises 05:57:41 0° 233° (SW) 2,660 6.8 -10.3°
Reaches altitude 10° 05:59:55 10° 229° (SW) 1,774 5.9 -9.9°
Maximum altitude 06:03:51 55° 151° (SSE) 643 4.3 -9.3°
Drops below altitude 10° 06:07:48 10° 74° (ENE) 1,784 7.1 -8.8°
Sets 06:10:03 0° 70° (ENE) 2,677 7.9 -8.4°
